Year,Month,Day,Hour,Minute,Value (Times are PST for temperature in C)
2015,08,29,00,00,15.40
2015,08,29,00,01,15.40
2015,08,29,00,02,15.40
2015,08,29,00,03,15.40
2015,08,29,00,04,15.40
2015,08,29,00,05,15.40
2015,08,29,00,06,15.40
2015,08,29,00,07,15.40
2015,08,29,00,08,15.40
2015,08,29,00,09,15.40
2015,08,29,00,10,15.40
2015,08,29,00,11,15.40
2015,08,29,00,12,15.40
2015,08,29,00,13,15.40
2015,08,29,00,14,15.40
2015,08,29,00,15,15.40
2015,08,29,00,16,15.40
2015,08,29,00,17,15.40
2015,08,29,00,18,15.40
2015,08,29,00,19,15.40
2015,08,29,00,20,15.40
2015,08,29,00,21,15.40
2015,08,29,00,22,15.40
2015,08,29,00,23,15.40
2015,08,29,00,24,15.40
2015,08,29,00,25,15.40
2015,08,29,00,26,15.40
2015,08,29,00,27,15.40
2015,08,29,00,28,15.40
2015,08,29,00,29,15.30
2015,08,29,00,30,15.30
2015,08,29,00,31,15.30
2015,08,29,00,32,15.30
2015,08,29,00,33,15.30
2015,08,29,00,34,15.30
2015,08,29,00,35,15.30
2015,08,29,00,36,15.30
2015,08,29,00,37,15.30
2015,08,29,00,38,15.30
2015,08,29,00,39,15.30
2015,08,29,00,40,15.30
2015,08,29,00,41,15.30
2015,08,29,00,42,15.30
2015,08,29,00,43,15.30
2015,08,29,00,44,15.30
2015,08,29,00,45,15.30
2015,08,29,00,46,15.30
2015,08,29,00,47,15.30
2015,08,29,00,48,15.30
2015,08,29,00,49,15.30
2015,08,29,00,50,15.30
2015,08,29,00,51,15.30
2015,08,29,00,52,15.30
2015,08,29,00,53,15.30
2015,08,29,00,54,15.30
2015,08,29,00,55,15.30
2015,08,29,00,56,15.30
2015,08,29,00,57,15.30
2015,08,29,00,58,15.30
2015,08,29,00,59,15.30
2015,08,29,01,00,15.30
2015,08,29,01,01,15.30
2015,08,29,01,02,15.30
2015,08,29,01,03,15.30
2015,08,29,01,04,15.30
2015,08,29,01,05,15.30
2015,08,29,01,06,15.30
2015,08,29,01,07,15.30
2015,08,29,01,08,15.30
2015,08,29,01,09,15.20
2015,08,29,01,10,15.20
2015,08,29,01,11,15.20
2015,08,29,01,12,15.20
2015,08,29,01,13,15.20
2015,08,29,01,14,15.20
2015,08,29,01,15,15.20
2015,08,29,01,16,15.20
2015,08,29,01,17,15.20
2015,08,29,01,18,15.20
2015,08,29,01,19,15.20
2015,08,29,01,20,15.20
2015,08,29,01,21,15.20
2015,08,29,01,22,15.10
2015,08,29,01,23,15.10
2015,08,29,01,24,15.10
2015,08,29,01,25,15.10
2015,08,29,01,26,15.10
2015,08,29,01,27,15.10
2015,08,29,01,28,15.10
2015,08,29,01,29,15.10
2015,08,29,01,30,15.10
2015,08,29,01,31,15.10
2015,08,29,01,32,15.10
2015,08,29,01,33,15.10
2015,08,29,01,34,15.10
2015,08,29,01,35,15.10
2015,08,29,01,36,15.10
2015,08,29,01,37,15.00
2015,08,29,01,38,15.00
2015,08,29,01,39,15.00
2015,08,29,01,40,15.00
2015,08,29,01,41,15.00
2015,08,29,01,42,15.00
2015,08,29,01,43,15.00
2015,08,29,01,44,15.00
2015,08,29,01,45,15.00
2015,08,29,01,46,15.00
2015,08,29,01,47,15.00
2015,08,29,01,48,15.00
2015,08,29,01,49,15.00
2015,08,29,01,50,15.00
2015,08,29,01,51,15.00
2015,08,29,01,52,15.00
2015,08,29,01,53,15.00
2015,08,29,01,54,15.00
2015,08,29,01,55,15.00
2015,08,29,01,56,15.00
2015,08,29,01,57,15.00
2015,08,29,01,58,15.00
2015,08,29,01,59,15.00
2015,08,29,02,00,15.00
2015,08,29,02,01,15.00
2015,08,29,02,02,15.10
2015,08,29,02,03,15.10
2015,08,29,02,04,15.10
2015,08,29,02,05,15.10
2015,08,29,02,06,15.10
2015,08,29,02,07,15.10
2015,08,29,02,08,15.10
2015,08,29,02,09,15.10
2015,08,29,02,10,15.10
2015,08,29,02,11,15.10
2015,08,29,02,12,15.10
2015,08,29,02,13,15.10
2015,08,29,02,14,15.10
2015,08,29,02,15,15.10
2015,08,29,02,16,15.10
2015,08,29,02,17,15.10
2015,08,29,02,18,15.10
2015,08,29,02,19,15.10
2015,08,29,02,20,15.10
2015,08,29,02,21,15.10
2015,08,29,02,22,15.10
2015,08,29,02,23,15.10
2015,08,29,02,24,15.10
2015,08,29,02,25,15.10
2015,08,29,02,26,15.10
2015,08,29,02,27,15.10
2015,08,29,02,28,15.10
2015,08,29,02,29,15.10
2015,08,29,02,30,15.10
2015,08,29,02,31,15.10
2015,08,29,02,32,15.10
2015,08,29,02,33,15.10
2015,08,29,02,34,15.10
2015,08,29,02,35,15.10
2015,08,29,02,36,15.00
2015,08,29,02,37,15.00
2015,08,29,02,38,15.00
2015,08,29,02,39,15.00
2015,08,29,02,40,15.00
2015,08,29,02,41,15.00
2015,08,29,02,42,14.90
2015,08,29,02,43,14.90
2015,08,29,02,44,14.90
2015,08,29,02,45,14.90
2015,08,29,02,46,14.90
2015,08,29,02,47,14.90
2015,08,29,02,48,14.90
2015,08,29,02,49,14.90
2015,08,29,02,50,14.90
2015,08,29,02,51,14.90
2015,08,29,02,52,14.90
2015,08,29,02,53,14.90
2015,08,29,02,54,14.90
2015,08,29,02,55,14.90
2015,08,29,02,56,14.90
2015,08,29,02,57,14.90
2015,08,29,02,58,14.90
2015,08,29,02,59,14.80
2015,08,29,03,00,14.80
2015,08,29,03,01,14.80
2015,08,29,03,02,14.80
2015,08,29,03,03,14.80
2015,08,29,03,04,14.80
2015,08,29,03,05,14.80
2015,08,29,03,06,14.80
2015,08,29,03,07,14.80
2015,08,29,03,08,14.80
2015,08,29,03,09,14.80
2015,08,29,03,10,14.80
2015,08,29,03,11,14.80
2015,08,29,03,12,14.80
2015,08,29,03,13,14.80
2015,08,29,03,14,14.80
2015,08,29,03,15,14.80
2015,08,29,03,16,14.80
2015,08,29,03,17,14.80
2015,08,29,03,18,14.80
2015,08,29,03,19,14.80
2015,08,29,03,20,14.80
2015,08,29,03,21,14.80
2015,08,29,03,22,14.80
2015,08,29,03,23,14.80
2015,08,29,03,24,14.80
2015,08,29,03,25,14.80
2015,08,29,03,26,14.80
2015,08,29,03,27,14.80
2015,08,29,03,28,14.80
2015,08,29,03,29,14.80
2015,08,29,03,30,14.80
2015,08,29,03,31,14.80
2015,08,29,03,32,14.80
2015,08,29,03,33,14.80
2015,08,29,03,34,14.80
2015,08,29,03,35,14.80
2015,08,29,03,36,14.80
2015,08,29,03,37,14.80
2015,08,29,03,38,14.80
2015,08,29,03,39,14.80
2015,08,29,03,40,14.80
2015,08,29,03,41,14.80
2015,08,29,03,42,14.80
2015,08,29,03,43,14.80
2015,08,29,03,44,14.80
2015,08,29,03,45,14.80
2015,08,29,03,46,14.80
2015,08,29,03,47,14.80
2015,08,29,03,48,14.80
2015,08,29,03,49,14.80
2015,08,29,03,50,14.80
2015,08,29,03,51,14.80
2015,08,29,03,52,14.80
2015,08,29,03,53,14.80
2015,08,29,03,54,14.80
2015,08,29,03,55,14.70
2015,08,29,03,56,14.70
2015,08,29,03,57,14.70
2015,08,29,03,58,14.70
2015,08,29,03,59,14.70
2015,08,29,04,00,14.70
2015,08,29,04,01,14.70
2015,08,29,04,02,14.70
2015,08,29,04,03,14.70
2015,08,29,04,04,14.70
2015,08,29,04,05,14.70
2015,08,29,04,06,14.70
2015,08,29,04,07,14.70
2015,08,29,04,08,14.70
2015,08,29,04,09,14.70
2015,08,29,04,10,14.70
2015,08,29,04,11,14.70
2015,08,29,04,12,14.70
2015,08,29,04,13,14.70
2015,08,29,04,14,14.70
2015,08,29,04,15,14.70
2015,08,29,04,16,14.70
2015,08,29,04,17,14.70
2015,08,29,04,18,14.70
2015,08,29,04,19,14.70
2015,08,29,04,20,14.70
2015,08,29,04,21,14.70
2015,08,29,04,22,14.70
2015,08,29,04,23,14.70
2015,08,29,04,24,14.70
2015,08,29,04,25,14.70
2015,08,29,04,26,14.70
2015,08,29,04,27,14.70
2015,08,29,04,28,14.70
2015,08,29,04,29,14.70
2015,08,29,04,30,14.70
2015,08,29,04,31,14.70
2015,08,29,04,32,14.70
2015,08,29,04,33,14.70
2015,08,29,04,34,14.70
2015,08,29,04,35,14.70
2015,08,29,04,36,14.70
2015,08,29,04,37,14.70
2015,08,29,04,38,14.70
2015,08,29,04,39,14.70
2015,08,29,04,40,14.70
2015,08,29,04,41,14.70
2015,08,29,04,42,14.70
2015,08,29,04,43,14.70
2015,08,29,04,44,14.70
2015,08,29,04,45,14.70
2015,08,29,04,46,14.70
2015,08,29,04,47,14.70
2015,08,29,04,48,14.70
2015,08,29,04,49,14.70
2015,08,29,04,50,14.60
2015,08,29,04,51,14.60
2015,08,29,04,52,14.60
2015,08,29,04,53,14.60
2015,08,29,04,54,14.60
2015,08,29,04,55,14.60
2015,08,29,04,56,14.60
2015,08,29,04,57,14.60
2015,08,29,04,58,14.70
2015,08,29,04,59,14.60
2015,08,29,05,00,14.70
2015,08,29,05,01,14.70
2015,08,29,05,02,14.70
2015,08,29,05,03,14.70
2015,08,29,05,04,14.70
2015,08,29,05,05,14.70
2015,08,29,05,06,14.70
2015,08,29,05,07,14.70
2015,08,29,05,08,14.70
2015,08,29,05,09,14.70
2015,08,29,05,10,14.70
2015,08,29,05,11,14.70
2015,08,29,05,12,14.70
2015,08,29,05,13,14.70
2015,08,29,05,14,14.70
2015,08,29,05,15,14.70
2015,08,29,05,16,14.70
2015,08,29,05,17,14.70
2015,08,29,05,18,14.70
2015,08,29,05,19,14.70
2015,08,29,05,20,14.70
2015,08,29,05,21,14.70
2015,08,29,05,22,14.70
2015,08,29,05,23,14.70
2015,08,29,05,24,14.70
2015,08,29,05,25,14.70
2015,08,29,05,26,14.70
2015,08,29,05,27,14.70
2015,08,29,05,28,14.70
2015,08,29,05,29,14.70
2015,08,29,05,30,14.70
2015,08,29,05,31,14.70
2015,08,29,05,32,14.70
2015,08,29,05,33,14.70
2015,08,29,05,34,14.70
2015,08,29,05,35,14.70
2015,08,29,05,36,14.70
2015,08,29,05,37,14.70
2015,08,29,05,38,14.70
2015,08,29,05,39,14.70
2015,08,29,05,40,14.70
2015,08,29,05,41,14.70
2015,08,29,05,42,14.70
2015,08,29,05,43,14.70
2015,08,29,05,44,14.70
2015,08,29,05,45,14.70
2015,08,29,05,46,14.70
2015,08,29,05,47,14.70
2015,08,29,05,48,14.70
2015,08,29,05,49,14.70
2015,08,29,05,50,14.70
2015,08,29,05,51,14.60
2015,08,29,05,52,14.70
2015,08,29,05,53,14.70
2015,08,29,05,54,14.70
2015,08,29,05,55,14.70
2015,08,29,05,56,14.70
2015,08,29,05,57,14.70
2015,08,29,05,58,14.70
2015,08,29,05,59,14.70
2015,08,29,06,00,14.70
2015,08,29,06,01,14.80
2015,08,29,06,02,14.80
2015,08,29,06,03,14.80
2015,08,29,06,04,14.80
2015,08,29,06,05,14.80
2015,08,29,06,06,14.80
2015,08,29,06,07,14.80
2015,08,29,06,08,14.80
2015,08,29,06,09,14.80
2015,08,29,06,10,14.80
2015,08,29,06,11,14.80
2015,08,29,06,12,14.80
2015,08,29,06,13,14.80
2015,08,29,06,14,14.80
2015,08,29,06,15,14.80
2015,08,29,06,16,14.80
2015,08,29,06,17,14.80
2015,08,29,06,18,14.80
2015,08,29,06,19,14.80
2015,08,29,06,20,14.80
2015,08,29,06,21,14.90
2015,08,29,06,22,14.90
2015,08,29,06,23,14.90
2015,08,29,06,24,14.90
2015,08,29,06,25,14.90
2015,08,29,06,26,14.90
2015,08,29,06,27,14.90
2015,08,29,06,28,14.90
2015,08,29,06,29,14.90
2015,08,29,06,30,14.90
2015,08,29,06,31,14.90
2015,08,29,06,32,14.90
2015,08,29,06,33,14.90
2015,08,29,06,34,14.90
2015,08,29,06,35,14.90
2015,08,29,06,36,14.90
2015,08,29,06,37,14.90
2015,08,29,06,38,14.90
2015,08,29,06,39,14.90
2015,08,29,06,40,14.90
2015,08,29,06,41,14.90
2015,08,29,06,42,14.90
2015,08,29,06,43,14.90
2015,08,29,06,44,14.80
2015,08,29,06,45,14.80
2015,08,29,06,46,14.80
2015,08,29,06,47,14.80
2015,08,29,06,48,14.80
2015,08,29,06,49,14.80
2015,08,29,06,50,14.80
2015,08,29,06,51,14.80
2015,08,29,06,52,14.90
2015,08,29,06,53,14.90
2015,08,29,06,54,14.90
2015,08,29,06,55,14.90
2015,08,29,06,56,14.90
2015,08,29,06,57,14.90
2015,08,29,06,58,14.90
2015,08,29,06,59,14.90
2015,08,29,07,00,14.90
2015,08,29,07,01,14.90
2015,08,29,07,02,14.90
2015,08,29,07,03,14.90
2015,08,29,07,04,14.90
2015,08,29,07,05,14.90
2015,08,29,07,06,14.90
2015,08,29,07,07,14.90
2015,08,29,07,08,14.80
2015,08,29,07,09,14.80
2015,08,29,07,10,14.80
2015,08,29,07,11,14.80
2015,08,29,07,12,14.80
2015,08,29,07,13,14.80
2015,08,29,07,14,14.70
2015,08,29,07,15,14.70
2015,08,29,07,16,14.70
2015,08,29,07,17,14.70
2015,08,29,07,18,14.70
2015,08,29,07,19,14.70
2015,08,29,07,20,14.70
2015,08,29,07,21,14.70
2015,08,29,07,22,14.70
2015,08,29,07,23,14.70
2015,08,29,07,24,14.70
2015,08,29,07,25,14.70
2015,08,29,07,26,14.70
2015,08,29,07,27,14.60
2015,08,29,07,28,14.60
2015,08,29,07,29,14.60
2015,08,29,07,30,14.60
2015,08,29,07,31,14.60
2015,08,29,07,32,14.50
2015,08,29,07,33,14.50
2015,08,29,07,34,14.50
2015,08,29,07,35,14.50
2015,08,29,07,36,14.40
2015,08,29,07,37,14.40
2015,08,29,07,38,14.40
2015,08,29,07,39,14.40
2015,08,29,07,40,14.40
2015,08,29,07,41,14.40
2015,08,29,07,42,14.40
2015,08,29,07,43,14.40
2015,08,29,07,44,14.40
2015,08,29,07,45,14.40
2015,08,29,07,46,14.40
2015,08,29,07,47,14.40
2015,08,29,07,48,14.40
2015,08,29,07,49,14.40
2015,08,29,07,50,14.40
2015,08,29,07,51,14.40
2015,08,29,07,52,14.40
2015,08,29,07,53,14.40
2015,08,29,07,54,14.40
2015,08,29,07,55,14.40
2015,08,29,07,56,14.40
2015,08,29,07,57,14.40
2015,08,29,07,58,14.40
2015,08,29,07,59,14.40
2015,08,29,08,00,14.40
2015,08,29,08,01,14.40
2015,08,29,08,02,14.40
2015,08,29,08,03,14.40
2015,08,29,08,04,14.40
2015,08,29,08,05,14.40
2015,08,29,08,06,14.30
2015,08,29,08,07,14.30
2015,08,29,08,08,14.30
2015,08,29,08,09,14.30
2015,08,29,08,10,14.30
2015,08,29,08,11,14.30
2015,08,29,08,12,14.30
2015,08,29,08,13,14.30
2015,08,29,08,14,14.30
2015,08,29,08,15,14.30
2015,08,29,08,16,14.40
2015,08,29,08,17,14.40
2015,08,29,08,18,14.40
2015,08,29,08,19,14.40
2015,08,29,08,20,14.40
2015,08,29,08,21,14.40
2015,08,29,08,22,14.40
2015,08,29,08,23,14.40
2015,08,29,08,24,14.40
2015,08,29,08,25,14.40
2015,08,29,08,26,14.40
2015,08,29,08,27,14.40
2015,08,29,08,28,14.40
2015,08,29,08,29,14.40
2015,08,29,08,30,14.40
2015,08,29,08,31,14.40
2015,08,29,08,32,14.40
2015,08,29,08,33,14.40
2015,08,29,08,34,14.40
2015,08,29,08,35,14.40
2015,08,29,08,36,14.40
2015,08,29,08,37,14.40
2015,08,29,08,38,14.40
2015,08,29,08,39,14.40
2015,08,29,08,40,14.40
2015,08,29,08,41,14.40
2015,08,29,08,42,14.40
2015,08,29,08,43,14.40
2015,08,29,08,44,14.40
2015,08,29,08,45,14.40
2015,08,29,08,46,14.40
2015,08,29,08,47,14.40
2015,08,29,08,48,14.40
2015,08,29,08,49,14.30
2015,08,29,08,50,14.30
2015,08,29,08,51,14.30
2015,08,29,08,52,14.30
2015,08,29,08,53,14.30
2015,08,29,08,54,14.30
2015,08,29,08,55,14.30
2015,08,29,08,56,14.30
2015,08,29,08,57,14.40
2015,08,29,08,58,14.40
2015,08,29,08,59,14.40
2015,08,29,09,00,14.40
2015,08,29,09,01,14.40
2015,08,29,09,02,14.40
2015,08,29,09,03,14.40
2015,08,29,09,04,14.40
2015,08,29,09,05,14.50
2015,08,29,09,06,14.50
2015,08,29,09,07,14.50
2015,08,29,09,08,14.60
2015,08,29,09,09,14.60
2015,08,29,09,10,14.60
2015,08,29,09,11,14.60
2015,08,29,09,12,14.60
2015,08,29,09,13,14.70
2015,08,29,09,14,14.70
2015,08,29,09,15,14.70
2015,08,29,09,16,14.80
2015,08,29,09,17,14.80
2015,08,29,09,18,14.90
2015,08,29,09,19,14.90
2015,08,29,09,20,14.90
2015,08,29,09,21,14.90
2015,08,29,09,22,15.00
2015,08,29,09,23,15.00
2015,08,29,09,24,15.10
2015,08,29,09,25,15.10
2015,08,29,09,26,15.20
2015,08,29,09,27,15.20
2015,08,29,09,28,15.20
2015,08,29,09,29,15.30
2015,08,29,09,30,15.30
2015,08,29,09,31,15.30
2015,08,29,09,32,15.30
2015,08,29,09,33,15.30
2015,08,29,09,34,15.30
2015,08,29,09,35,15.20
2015,08,29,09,36,15.20
2015,08,29,09,37,15.20
2015,08,29,09,38,15.20
2015,08,29,09,39,15.20
2015,08,29,09,40,15.20
2015,08,29,09,41,15.30
2015,08,29,09,42,15.40
2015,08,29,09,43,15.40
2015,08,29,09,44,15.50
2015,08,29,09,45,15.60
2015,08,29,09,46,15.60
2015,08,29,09,47,15.70
2015,08,29,09,48,15.80
2015,08,29,09,49,15.80
2015,08,29,09,50,15.80
2015,08,29,09,51,15.80
2015,08,29,09,52,15.80
2015,08,29,09,53,15.80
2015,08,29,09,54,15.80
2015,08,29,09,55,15.80
2015,08,29,09,56,15.70
2015,08,29,09,57,15.70
2015,08,29,09,58,15.70
2015,08,29,09,59,15.60
2015,08,29,10,00,15.60
2015,08,29,10,01,15.60
2015,08,29,10,02,15.60
2015,08,29,10,03,15.60
2015,08,29,10,04,15.60
2015,08,29,10,05,15.60
2015,08,29,10,06,15.60
2015,08,29,10,07,15.60
2015,08,29,10,08,15.50
2015,08,29,10,09,15.50
2015,08,29,10,10,15.50
2015,08,29,10,11,15.50
2015,08,29,10,12,15.50
2015,08,29,10,13,15.50
2015,08,29,10,14,15.50
2015,08,29,10,15,15.50
2015,08,29,10,16,15.50
2015,08,29,10,17,15.50
2015,08,29,10,18,15.60
2015,08,29,10,19,15.60
2015,08,29,10,20,15.60
2015,08,29,10,21,15.70
2015,08,29,10,22,15.70
2015,08,29,10,23,15.70
2015,08,29,10,24,15.70
2015,08,29,10,25,15.70
2015,08,29,10,26,15.70
2015,08,29,10,27,15.70
2015,08,29,10,28,15.70
2015,08,29,10,29,15.70
2015,08,29,10,30,15.70
2015,08,29,10,31,15.70
2015,08,29,10,32,15.70
2015,08,29,10,33,15.70
2015,08,29,10,34,15.70
2015,08,29,10,35,15.70
2015,08,29,10,36,15.70
2015,08,29,10,37,15.70
2015,08,29,10,38,15.80
2015,08,29,10,39,15.70
2015,08,29,10,40,15.80
2015,08,29,10,41,15.80
2015,08,29,10,42,15.80
2015,08,29,10,43,15.80
2015,08,29,10,44,15.80
2015,08,29,10,45,15.90
2015,08,29,10,46,15.90
2015,08,29,10,47,16.00
2015,08,29,10,48,16.10
2015,08,29,10,49,16.10
2015,08,29,10,50,16.10
2015,08,29,10,51,16.20
2015,08,29,10,52,16.20
2015,08,29,10,53,16.20
2015,08,29,10,54,16.30
2015,08,29,10,55,16.30
2015,08,29,10,56,16.30
2015,08,29,10,57,16.30
2015,08,29,10,58,16.30
2015,08,29,10,59,16.30
2015,08,29,11,00,16.30
2015,08,29,11,01,16.40
2015,08,29,11,02,16.30
2015,08,29,11,03,16.30
2015,08,29,11,04,16.30
2015,08,29,11,05,16.30
2015,08,29,11,06,16.30
2015,08,29,11,07,16.30
2015,08,29,11,08,16.30
2015,08,29,11,09,16.30
2015,08,29,11,10,16.30
2015,08,29,11,11,16.30
2015,08,29,11,12,16.30
2015,08,29,11,13,16.40
2015,08,29,11,14,16.40
2015,08,29,11,15,16.50
2015,08,29,11,16,16.60
2015,08,29,11,17,16.70
2015,08,29,11,18,16.70
2015,08,29,11,19,16.80
2015,08,29,11,20,16.80
2015,08,29,11,21,16.90
2015,08,29,11,22,17.00
2015,08,29,11,23,17.00
2015,08,29,11,24,17.10
2015,08,29,11,25,17.10
2015,08,29,11,26,17.10
2015,08,29,11,27,17.10
2015,08,29,11,28,17.10
2015,08,29,11,29,17.10
2015,08,29,11,30,17.20
2015,08,29,11,31,17.20
2015,08,29,11,32,17.30
2015,08,29,11,33,17.30
2015,08,29,11,34,17.30
2015,08,29,11,35,17.30
2015,08,29,11,36,17.30
2015,08,29,11,37,17.30
2015,08,29,11,38,17.20
2015,08,29,11,39,17.20
2015,08,29,11,40,17.20
2015,08,29,11,41,17.10
2015,08,29,11,42,17.10
2015,08,29,11,43,17.10
2015,08,29,11,44,17.00
2015,08,29,11,45,17.00
2015,08,29,11,46,16.90
2015,08,29,11,47,17.00
2015,08,29,11,48,17.00
2015,08,29,11,49,17.10
2015,08,29,11,50,17.10
2015,08,29,11,51,17.20
2015,08,29,11,52,17.30
2015,08,29,11,53,17.40
2015,08,29,11,54,17.50
2015,08,29,11,55,17.60
2015,08,29,11,56,17.70
2015,08,29,11,57,17.80
2015,08,29,11,58,17.90
2015,08,29,11,59,18.00
2015,08,29,12,00,18.10
2015,08,29,12,01,18.20
2015,08,29,12,02,18.30
2015,08,29,12,03,18.30
2015,08,29,12,04,18.40
2015,08,29,12,05,18.50
2015,08,29,12,06,18.60
2015,08,29,12,07,18.70
2015,08,29,12,08,18.80
2015,08,29,12,09,18.80
2015,08,29,12,10,18.80
2015,08,29,12,11,18.80
2015,08,29,12,12,18.80
2015,08,29,12,13,18.80
2015,08,29,12,14,18.80
2015,08,29,12,15,18.80
2015,08,29,12,16,18.70
2015,08,29,12,17,18.70
2015,08,29,12,18,18.70
2015,08,29,12,19,18.70
2015,08,29,12,20,18.70
2015,08,29,12,21,18.70
2015,08,29,12,22,18.80
2015,08,29,12,23,18.80
2015,08,29,12,24,18.90
2015,08,29,12,25,18.90
2015,08,29,12,26,19.00
2015,08,29,12,27,19.20
2015,08,29,12,28,19.30
2015,08,29,12,29,19.40
2015,08,29,12,30,19.40
2015,08,29,12,31,19.50
2015,08,29,12,32,19.50
2015,08,29,12,33,19.50
2015,08,29,12,34,19.50
2015,08,29,12,35,19.40
2015,08,29,12,36,19.40
2015,08,29,12,37,19.40
2015,08,29,12,38,19.30
2015,08,29,12,39,19.30
2015,08,29,12,40,19.30
2015,08,29,12,41,19.20
2015,08,29,12,42,19.10
2015,08,29,12,43,19.10
2015,08,29,12,44,19.10
2015,08,29,12,45,19.10
2015,08,29,12,46,19.10
2015,08,29,12,47,19.20
2015,08,29,12,48,19.20
2015,08,29,12,49,19.30
2015,08,29,12,50,19.30
2015,08,29,12,51,19.40
2015,08,29,12,52,19.30
2015,08,29,12,53,19.30
2015,08,29,12,54,19.30
2015,08,29,12,55,19.30
2015,08,29,12,56,19.30
2015,08,29,12,57,19.30
2015,08,29,12,58,19.30
2015,08,29,12,59,19.30
2015,08,29,13,00,19.30
2015,08,29,13,01,19.30
2015,08,29,13,02,19.20
2015,08,29,13,03,19.20
2015,08,29,13,04,19.20
2015,08,29,13,05,19.20
2015,08,29,13,06,19.20
2015,08,29,13,07,19.20
2015,08,29,13,08,19.20
2015,08,29,13,09,19.20
2015,08,29,13,10,19.20
2015,08,29,13,11,19.20
2015,08,29,13,12,19.20
2015,08,29,13,13,19.10
2015,08,29,13,14,19.10
2015,08,29,13,15,19.00
2015,08,29,13,16,18.90
2015,08,29,13,17,18.90
2015,08,29,13,18,18.80
2015,08,29,13,19,18.70
2015,08,29,13,20,18.60
2015,08,29,13,21,18.50
2015,08,29,13,22,18.30
2015,08,29,13,23,18.20
2015,08,29,13,24,18.10
2015,08,29,13,25,18.00
2015,08,29,13,26,18.00
2015,08,29,13,27,17.90
2015,08,29,13,28,17.90
2015,08,29,13,29,17.90
2015,08,29,13,30,17.80
2015,08,29,13,31,17.80
2015,08,29,13,32,17.80
2015,08,29,13,33,17.80
2015,08,29,13,34,17.80
2015,08,29,13,35,17.80
2015,08,29,13,36,17.80
2015,08,29,13,37,17.80
2015,08,29,13,38,17.90
2015,08,29,13,39,18.00
2015,08,29,13,40,18.10
2015,08,29,13,41,18.20
2015,08,29,13,42,18.50
2015,08,29,13,43,18.70
2015,08,29,13,44,18.90
2015,08,29,13,45,19.10
2015,08,29,13,46,19.30
2015,08,29,13,47,19.50
2015,08,29,13,48,19.70
2015,08,29,13,49,19.80
2015,08,29,13,50,19.90
2015,08,29,13,51,20.00
2015,08,29,13,52,20.10
2015,08,29,13,53,20.10
2015,08,29,13,54,20.10
2015,08,29,13,55,20.00
2015,08,29,13,56,19.90
2015,08,29,13,57,19.90
2015,08,29,13,58,19.90
2015,08,29,13,59,19.90
2015,08,29,14,00,19.80
2015,08,29,14,01,19.60
2015,08,29,14,02,19.40
2015,08,29,14,03,19.30
2015,08,29,20,20,14.20
2015,08,29,20,21,14.20
2015,08,29,20,22,14.20
2015,08,29,20,23,14.20
2015,08,29,20,24,14.10
2015,08,29,20,25,14.10
2015,08,29,20,26,14.10
2015,08,29,20,27,14.00
2015,08,29,20,28,14.00
2015,08,29,20,29,14.00
2015,08,29,20,30,13.90
2015,08,29,20,31,13.90
2015,08,29,20,32,13.90
2015,08,29,20,33,13.90
2015,08,29,20,34,13.90
2015,08,29,20,35,13.80
2015,08,29,20,36,13.80
2015,08,29,20,37,13.80
2015,08,29,20,38,13.80
2015,08,29,20,39,13.70
2015,08,29,20,40,13.70
2015,08,29,20,41,13.70
2015,08,29,20,42,13.70
2015,08,29,20,43,13.70
2015,08,29,20,44,13.70
2015,08,29,20,45,13.60
2015,08,29,20,46,13.60
2015,08,29,20,47,13.60
2015,08,29,20,48,13.60
2015,08,29,20,49,13.60
2015,08,29,20,50,13.50
2015,08,29,20,51,13.60
2015,08,29,20,52,13.50
2015,08,29,20,53,13.50
2015,08,29,20,54,13.50
2015,08,29,20,55,13.50
2015,08,29,20,56,13.50
2015,08,29,20,57,13.50
2015,08,29,20,58,13.50
2015,08,29,20,59,13.40
2015,08,29,21,00,13.40
2015,08,29,21,01,13.40
2015,08,29,21,02,13.40
2015,08,29,21,03,13.40
2015,08,29,21,04,13.40
2015,08,29,21,05,13.40
2015,08,29,21,06,13.40
2015,08,29,21,07,13.40
2015,08,29,21,08,13.30
2015,08,29,21,09,13.30
2015,08,29,21,10,13.30
2015,08,29,21,11,13.30
2015,08,29,21,12,13.30
2015,08,29,21,13,13.30
2015,08,29,21,14,13.30
2015,08,29,21,15,13.30
2015,08,29,21,16,13.30
2015,08,29,21,17,13.30
2015,08,29,21,18,13.40
2015,08,29,21,19,13.40
2015,08,29,21,20,13.40
2015,08,29,21,21,13.40
2015,08,29,21,22,13.50
2015,08,29,21,23,13.50
2015,08,29,21,24,13.60
2015,08,29,21,25,13.60
2015,08,29,21,26,13.60
2015,08,29,21,27,13.60
2015,08,29,21,28,13.60
2015,08,29,21,29,13.60
2015,08,29,21,30,13.60
2015,08,29,21,31,13.60
2015,08,29,21,32,13.60
2015,08,29,21,33,13.60
2015,08,29,21,34,13.60
2015,08,29,21,35,13.50
2015,08,29,21,36,13.50
2015,08,29,21,37,13.50
2015,08,29,21,38,13.40
2015,08,29,21,39,13.40
2015,08,29,21,40,13.40
2015,08,29,21,41,13.40
2015,08,29,21,42,13.30
2015,08,29,21,43,13.30
2015,08,29,21,44,13.30
2015,08,29,21,45,13.30
2015,08,29,21,46,13.30
2015,08,29,21,47,13.30
2015,08,29,21,48,13.30
2015,08,29,21,49,13.30
2015,08,29,21,50,13.30
2015,08,29,21,51,13.20
2015,08,29,21,52,13.20
2015,08,29,21,53,13.20
2015,08,29,21,54,13.20
2015,08,29,21,55,13.20
2015,08,29,21,56,13.10
2015,08,29,21,57,13.10
2015,08,29,21,58,13.10
2015,08,29,21,59,13.10
2015,08,29,22,00,13.00
2015,08,29,22,01,13.00
2015,08,29,22,02,13.00
2015,08,29,22,03,13.00
2015,08,29,22,04,13.00
2015,08,29,22,05,13.10
2015,08,29,22,06,13.10
2015,08,29,22,07,13.10
2015,08,29,22,08,13.10
2015,08,29,22,09,13.10
2015,08,29,22,10,13.10
2015,08,29,22,11,13.10
2015,08,29,22,12,13.10
2015,08,29,22,13,13.00
2015,08,29,22,14,13.00
2015,08,29,22,15,13.00
2015,08,29,22,16,12.90
2015,08,29,22,17,12.90
2015,08,29,22,18,12.90
2015,08,29,22,19,12.90
2015,08,29,22,20,12.90
2015,08,29,22,21,12.90
2015,08,29,22,22,12.80
2015,08,29,22,23,12.80
2015,08,29,22,24,12.80
2015,08,29,22,25,12.80
2015,08,29,22,26,12.80
2015,08,29,22,27,12.80
2015,08,29,22,28,12.80
2015,08,29,22,29,12.80
2015,08,29,22,30,12.80
2015,08,29,22,31,12.80
2015,08,29,22,32,12.80
2015,08,29,22,33,12.80
2015,08,29,22,34,12.80
2015,08,29,22,35,12.80
2015,08,29,22,36,12.80
2015,08,29,22,37,12.80
2015,08,29,22,38,12.80
2015,08,29,22,39,12.80
2015,08,29,22,40,12.80
2015,08,29,22,41,12.80
2015,08,29,22,42,12.80
2015,08,29,22,43,12.90
2015,08,29,22,44,12.90
2015,08,29,22,45,12.90
2015,08,29,22,46,12.90
2015,08,29,22,47,12.90
2015,08,29,22,48,12.90
2015,08,29,22,49,12.90
2015,08,29,22,50,12.90
2015,08,29,22,51,13.00
2015,08,29,22,52,13.00
2015,08,29,22,53,12.90
2015,08,29,22,54,13.00
2015,08,29,22,55,13.00
2015,08,29,22,56,13.00
2015,08,29,22,57,13.00
2015,08,29,22,58,13.00
2015,08,29,22,59,12.90
2015,08,29,23,00,12.90
2015,08,29,23,01,12.90
2015,08,29,23,02,12.90
2015,08,29,23,03,12.90
2015,08,29,23,04,12.90
2015,08,29,23,05,12.90
2015,08,29,23,06,12.90
2015,08,29,23,07,12.90
2015,08,29,23,08,12.90
2015,08,29,23,09,12.90
2015,08,29,23,10,12.90
2015,08,29,23,11,12.90
2015,08,29,23,12,12.80
2015,08,29,23,13,12.80
2015,08,29,23,14,12.80
2015,08,29,23,15,12.90
2015,08,29,23,16,12.90
2015,08,29,23,17,12.90
2015,08,29,23,18,12.90
2015,08,29,23,19,12.90
2015,08,29,23,20,12.90
2015,08,29,23,21,12.90
2015,08,29,23,22,13.00
2015,08,29,23,23,13.00
2015,08,29,23,24,13.00
2015,08,29,23,25,13.00
2015,08,29,23,26,13.00
2015,08,29,23,27,13.00
2015,08,29,23,28,13.00
2015,08,29,23,29,13.10
2015,08,29,23,30,13.10
2015,08,29,23,31,13.10
2015,08,29,23,32,13.10
2015,08,29,23,33,13.10
2015,08,29,23,34,13.10
2015,08,29,23,35,13.10